sat.trackr.live / text

‹ back to catalog

AGILA

NORAD 62456 · 2024-252C

PAYLOAD ACTIVE UNKNOWN

§ Identity

Operator
Country
RP
Launch date
2024-12-29
Launch site
AFETR
Launch vehicle
Mass (kg)
RCS (m²)

Purposes: comms

External: N2YO · Heavens-Above · Gunter

§ Orbital elements

Epoch: 2026-05-24T21:37:17.526720Z

Period
1,436.12 min
Inclination
0.0532°
Eccentricity
0.0001298
Mean motion
1.00270187 rev/d
Perigee alt
35,781.6 km
Apogee alt
35,792.5 km
Semi-major
42,165.2 km
B*
0.0000e+0
RAAN
113.4542°
Arg perigee
332.8838°
Mean anomaly
272.6313°
Rev number
492

§ Raw data

AGILA1 62456U 24252C   26144.90089730 -.00000185  00000+0  00000+0 0  99942 62456   0.0532 113.4542 0001298 332.8838 272.6313  1.00270187  4925

JSON: /api/v1/satellites/62456 · /tle

For live sub-satellite position, see the globe view (requires WebGL).

§ Visibility from observer

Set your observer location to see the next 7 days of passes ≥ 10°. The values pass through the URL so the page stays shareable.

No JS? Fill the form by hand. The geolocation button needs JavaScript.